This demonstration page uses our WeatherBlox Daily Observations layout. Learn more.

Left ArrowRight Arrow

30.21309, -93.2044

Hourly Observations for June 10, 2019

Temp ( °F °C ) Dew Point ( °F °C ) Humidity (%) Winds ( mph kmh ) Pressure ( in mb ) Visibility ( mi km ) Precip ( " mm )
12:15 am 00:15 Clear 78 25.7 72 22.2 81 81 N 3 6 29.99 1016 10 16 0.00 0.00
12:35 am 00:35 Clear 78 25.6 72 22.3 82 82 N 5 7 29.99 1016 10 16 0.00 0.00
12:55 am 00:55 Clear 78 25.6 72 22.3 82 82 N 6 9 29.99 1016 10 16 0.00 0.00
1:15 am 01:15 Clear 78 25.5 72 22.1 82 82 N 7 11 29.98 1015 10 16 0.00 0.00
1:35 am 01:35 Clear 78 25.4 72 22 82 82 N 7 11 29.98 1015 10 16 0.00 0.00
1:55 am 01:55 Clear 77 25.2 72 22 82 82 N 7 11 29.97 1015 10 16 0.00 0.00
2:15 am 02:15 Clear 77 25.2 72 22 82 82 N 7 11 29.97 1015 10 16 0.00 0.00
2:35 am 02:35 Clear 78 25.3 71 21.7 81 81 N 8 13 29.97 1015 10 16 0.00 0.00
2:55 am 02:55 Clear 77 25.2 71 21.6 81 81 N 7 11 29.98 1015 10 16 0.00 0.00
3:15 am 03:15 Clear 77 25 71 21.6 81 81 N 6 9 29.98 1015 10 16 0.00 0.00
3:35 am 03:35 Clear 77 24.9 71 21.6 82 82 N 6 9 29.99 1016 10 16 0.00 0.00
3:55 am 03:55 Clear 76 24.6 71 21.6 83 83 N 6 9 29.99 1016 10 16 0.00 0.00
4:15 am 04:15 Clear 76 24.6 71 21.6 83 83 N 8 13 30.00 1016 10 16 0.00 0.00
4:35 am 04:35 Clear 76 24.5 71 21.7 84 84 N 7 11 30.01 1016 10 16 0.00 0.00
4:55 am 04:55 Clear 76 24.2 71 21.7 86 86 N 6 9 30.02 1017 10 16 0.00 0.00
5:15 am 05:15 Clear 75 24.1 71 21.7 87 87 N 7 11 30.02 1017 10 16 0.00 0.00
5:35 am 05:35 Clear 75 24 71 21.7 87 87 N 9 15 30.03 1017 10 16 0.00 0.00
6:00 am 06:00 Mostly Clear 75 24 72 22 89 89 NNE 12 19 30.03 1017 10 16 0.00 0.00
6:55 am 06:55 Mostly Sunny 75 24 72 22 89 89 N 8 13 30.05 1018 10 16 0.00 0.00
7:50 am 07:50 Mostly Sunny 79 26 72 22 79 79 N 8 13 30.07 1018 10 16 0.00 0.00
8:55 am 08:55 Mostly Sunny 82 28 73 23 74 74 N 9 15 30.08 1019 10 16 0.00 0.00
9:45 am 09:45 Mostly Sunny 84 29 73 23 70 70 NNE 12 19 30.08 1019 10 16 0.00 0.00
10:45 am 10:45 Partly Cloudy 86 30 72 22 62 62 N 12 19 30.08 1019 10 16 0.00 0.00
11:55 am 11:55 Mostly Cloudy 88 31 73 23 62 62 NNE 8 13 30.08 1019 10 16 0.00 0.00
12:55 pm 12:55 Mostly Cloudy 90 32 73 23 59 59 N 12 19 30.07 1018 10 16 0.00 0.00
1:50 pm 13:50 Mostly Cloudy 90 32 73 23 59 59 N 13 20 30.07 1018 10 16 0.00 0.00
2:55 pm 14:55 Mostly Cloudy 91 33 72 22 52 52 N 14 22 30.05 1018 10 16 0.00 0.00
3:50 pm 15:50 Mostly Cloudy 91 33 73 23 56 56 NNE 13 20 30.05 1018 10 16 0.00 0.00
4:55 pm 16:55 Partly Cloudy 91 33 72 22 52 52 N 13 20 30.03 1017 10 16 0.00 0.00
5:50 pm 17:50 Partly Cloudy 90 32 72 22 55 55 NNE 13 20 30.02 1017 10 16 0.00 0.00
6:50 pm 18:50 Partly Cloudy 90 32 72 22 55 55 NNE 10 17 30.02 1017 10 16 0.00 0.00
7:50 pm 19:50 Mostly Sunny 84 29 72 22 66 66 N 6 9 30.04 1017 10 16 0.00 0.00
8:50 pm 20:50 Mostly Clear 82 28 73 23 74 74 N 10 17 30.06 1018 10 16 0.00 0.00
9:50 pm 21:50 Mostly Clear 81 27 72 22 74 74 N 9 15 30.08 1019 10 16 0.00 0.00
10:15 pm 22:15 Mostly Cloudy 80 26.6 73 22.5 78 78 N 7 11 30.09 1019 10 16 0.00 0.00
10:35 pm 22:35 Partly Cloudy 80 26.6 72 22.1 76 76 N 9 15 30.09 1019 10 16 0.00 0.00
10:55 pm 22:55 Partly Cloudy 80 26.4 72 22 77 77 NNE 10 17 30.10 1019 10 16 0.00 0.00
11:15 pm 23:15 Clear 79 25.9 72 22 79 79 NNE 8 13 30.10 1019 10 16 0.00 0.00
11:35 pm 23:35 Clear 78 25.6 71 21.7 79 79 NNE 10 17 30.09 1019 10 16 0.00 0.00
11:55 pm 23:55 Clear 78 25.3 71 21.5 80 80 NNE 7 11 30.10 1019 10 16 0.01 0.25

Powered by AerisWeather